{"data":{"norad_id":57898,"epoch":"2026-05-24T23:35:12.301728Z","epoch_age_seconds":77272,"freshness":"FRESH","line1":"1 57898U 23146H   26144.98278127 -.00000108  00000+0  55969-5 0  9992","line2":"2 57898  43.0031 243.3965 0001235 267.6556  92.4154 15.27583841148721","mean_motion":15.27583841,"eccentricity":0.0001235,"inclination_deg":43.0031,"raan_deg":243.3965,"arg_perigee_deg":267.6556,"mean_anomaly_deg":92.4154,"bstar":5.5969e-6,"rev_number":14872,"period_min":94.266511686673,"perigee_km":482.19023966551,"apogee_km":483.88494979041,"semimajor_km":6861.174594728,"source":"CELESTRAK","updated_at":"2026-05-25T13:38:18.453267Z"}}